| time (UTC) | temp F | wind direction | speed MPH | gust MPH | rain 1hr in | rain 24hr in | rain mn in | humidity % | barometer mb |
| 20260902193531 | 93 | 327 | 1.0 | 4.0 | 0.00 | 0.00 | 0.00 | 51 | 1015.7 |
| 20260902193031 | 93 | 333 | 0.0 | 3.0 | 0.00 | 0.00 | 0.00 | 50 | 1015.7 |
| 20260902192529 | 93 | 333 | 1.0 | 3.0 | 0.00 | 0.00 | 0.00 | 51 | 1015.8 |
| 20260902192030 | 93 | 332 | 1.0 | 3.0 | 0.00 | 0.00 | 0.00 | 52 | 1016.0 |
| 20260902191529 | 93 | 327 | 1.0 | 3.0 | 0.00 | 0.00 | 0.00 | 52 | 1016.0 |
| 20260902191031 | 93 | 326 | 1.0 | 4.0 | 0.00 | 0.00 | 0.00 | 52 | 1016.0 |
| 20260902190529 | 93 | 325 | 1.0 | 4.0 | 0.00 | 0.00 | 0.00 | 52 | 1016.0 |
| 20260902190028 | 94 | 60 | 1.0 | 2.0 | 0.00 | 0.00 | 0.00 | 51 | 1016.0 |
| 20260902185526 | 94 | 139 | 1.0 | 4.0 | 0.00 | 0.00 | 0.00 | 49 | 1016.1 |
| 20260902185028 | 94 | 140 | 0.0 | 4.0 | 0.00 | 0.00 | 0.00 | 49 | 1016.2 |
| 20260902184526 | 94 | 28 | 1.0 | 3.0 | 0.00 | 0.00 | 0.00 | 49 | 1016.3 |
| 20260902184028 | 94 | 150 | 1.0 | 3.0 | 0.00 | 0.00 | 0.00 | 49 | 1016.4 |
| 20260902183526 | 94 | 325 | 0.0 | 3.0 | 0.00 | 0.00 | 0.00 | 52 | 1016.4 |
| 20260902183025 | 94 | 325 | 1.0 | 3.0 | 0.00 | 0.00 | 0.00 | 50 | 1016.5 |
| 20260902182525 | 94 | 336 | 1.0 | 3.0 | 0.00 | 0.00 | 0.00 | 51 | 1016.6 |
| 20260902182024 | 94 | 117 | 1.0 | 3.0 | 0.00 | 0.00 | 0.00 | 49 | 1016.7 |
| 20260902181524 | 94 | 278 | 1.0 | 3.0 | 0.00 | 0.00 | 0.00 | 52 | 1016.7 |
| 20260902181024 | 93 | 262 | 1.0 | 3.0 | 0.00 | 0.00 | 0.00 | 51 | 1016.7 |
| 20260902180526 | 93 | 238 | 1.0 | 2.0 | 0.00 | 0.00 | 0.00 | 53 | 1016.7 |
| 20260902180022 | 92 | 238 | 0.0 | 2.0 | 0.00 | 0.00 | 0.00 | 56 | 1016.8 |
| 20260902175523 | 90 | 238 | 0.0 | 2.0 | 0.00 | 0.00 | 0.00 | 57 | 1016.8 |
| 20260902175023 | 90 | 162 | 0.0 | 2.0 | 0.00 | 0.00 | 0.00 | 57 | 1016.8 |
| 20260902174525 | 91 | 162 | 0.0 | 3.0 | 0.00 | 0.00 | 0.00 | 55 | 1016.9 |
| 20260902174022 | 93 | 161 | 0.0 | 3.0 | 0.00 | 0.00 | 0.00 | 54 | 1016.9 |
| 20260902173522 | 93 | 220 | 0.0 | 3.0 | 0.00 | 0.00 | 0.00 | 53 | 1016.9 |
| 20260902173022 | 94 | 220 | 0.0 | 3.0 | 0.00 | 0.00 | 0.00 | 52 | 1017.0 |
| 20260902172525 | 94 | 164 | 1.0 | 2.0 | 0.00 | 0.00 | 0.00 | 52 | 1017.1 |
| 20260902172022 | 93 | 162 | 0.0 | 3.0 | 0.00 | 0.00 | 0.00 | 49 | 1017.2 |
| 20260902171520 | 93 | 143 | 1.0 | 3.0 | 0.00 | 0.00 | 0.00 | 51 | 1017.2 |
| 20260902171018 | 93 | 242 | 0.0 | 2.0 | 0.00 | 0.00 | 0.00 | 52 | 1017.3 |
| 20260902170521 | 93 | 242 | 1.0 | 2.0 | 0.00 | 0.00 | 0.00 | 53 | 1017.4 |
| 20260902170026 | 93 | 143 | 1.0 | 2.0 | 0.00 | 0.00 | 0.00 | 54 | 1017.4 |
| 20260902165517 | 92 | 122 | 0.0 | 2.0 | 0.00 | 0.00 | 0.00 | 55 | 1017.5 |
| 20260902165016 | 92 | 121 | 0.0 | 2.0 | 0.00 | 0.00 | 0.00 | 54 | 1017.5 |
| 20260902164523 | 92 | 121 | 1.0 | 2.0 | 0.00 | 0.00 | 0.00 | 56 | 1017.5 |
| 20260902164014 | 92 | 124 | 0.0 | 2.0 | 0.00 | 0.00 | 0.00 | 57 | 1017.5 |
| 20260902163516 | 92 | 122 | 0.0 | 2.0 | 0.00 | 0.00 | 0.00 | 56 | 1017.6 |
| 20260902163013 | 92 | 122 | 1.0 | 2.0 | 0.00 | 0.00 | 0.00 | 58 | 1017.6 |
| 20260902162512 | 92 | 122 | 0.0 | 3.0 | 0.00 | 0.00 | 0.00 | 57 | 1017.7 |
| 20260902162013 | 91 | 119 | 1.0 | 3.0 | 0.00 | 0.00 | 0.00 | 56 | 1017.8 |
| 20260902161521 | 91 | 129 | 1.0 | 3.0 | 0.00 | 0.00 | 0.00 | 59 | 1017.8 |
| 20260902161010 | 90 | 207 | 1.0 | 2.0 | 0.00 | 0.00 | 0.00 | 58 | 1017.9 |
| 20260902160509 | 91 | 207 | 0.0 | 2.0 | 0.00 | 0.00 | 0.00 | 59 | 1017.9 |
| 20260902160009 | 91 | 206 | 1.0 | 6.0 | 0.00 | 0.00 | 0.00 | 60 | 1018.0 |
| 20260902155506 | 91 | 197 | 1.0 | 6.0 | 0.00 | 0.00 | 0.00 | 60 | 1018.1 |
| 20260902155007 | 90 | 169 | 0.0 | 4.0 | 0.00 | 0.00 | 0.00 | 64 | 1018.1 |
| 20260902154512 | 90 | 165 | 0.0 | 4.0 | 0.00 | 0.00 | 0.00 | 62 | 1018.1 |
| 20260902154001 | 90 | 214 | 0.0 | 2.0 | 0.00 | 0.00 | 0.00 | 63 | 1018.2 |
| 20260902153501 | 90 | 179 | 1.0 | 2.0 | 0.00 | 0.00 | 0.00 | 64 | 1018.3 |
| 20260902153101 | 89 | 205 | 0.0 | 2.0 | 0.00 | 0.00 | 0.00 | 64 | 1018.3 |
| 20260902152600 | 89 | 204 | 0.0 | 5.0 | 0.00 | 0.00 | 0.00 | 65 | 1018.3 |
| 20260902152059 | 89 | 203 | 2.0 | 7.0 | 0.00 | 0.00 | 0.00 | 66 | 1018.3 |
| 20260902151559 | 89 | 177 | 2.0 | 7.0 | 0.00 | 0.00 | 0.00 | 66 | 1018.3 |
| 20260902151057 | 88 | 171 | 3.0 | 6.0 | 0.00 | 0.00 | 0.00 | 67 | 1018.4 |
| 20260902150553 | 87 | 150 | 0.0 | 3.0 | 0.00 | 0.00 | 0.00 | 67 | 1018.4 |
| 20260902150054 | 87 | 150 | 0.0 | 5.0 | 0.00 | 0.00 | 0.00 | 68 | 1018.4 |
| 20260902145549 | 87 | 215 | 1.0 | 5.0 | 0.00 | 0.00 | 0.00 | 70 | 1018.4 |
| 20260902145048 | 87 | 224 | 1.0 | 6.0 | 0.00 | 0.00 | 0.00 | 70 | 1018.4 |
| 20260902144555 | 86 | 192 | 3.0 | 6.0 | 0.00 | 0.00 | 0.00 | 70 | 1018.4 |
| 20260902144046 | 85 | 206 | 2.0 | 6.0 | 0.00 | 0.00 | 0.00 | 72 | 1018.4 |
| 20260902143547 | 85 | 191 | 1.0 | 6.0 | 0.00 | 0.00 | 0.00 | 75 | 1018.3 |
| 20260902143043 | 84 | 148 | 1.0 | 3.0 | 0.00 | 0.00 | 0.00 | 74 | 1018.2 |
| 20260902142543 | 84 | 191 | 1.0 | 4.0 | 0.00 | 0.00 | 0.00 | 76 | 1018.2 |
| 20260902142044 | 83 | 205 | 1.0 | 4.0 | 0.00 | 0.00 | 0.00 | 76 | 1018.2 |
| 20260902141540 | 83 | 199 | 0.0 | 2.0 | 0.00 | 0.00 | 0.00 | 77 | 1018.2 |
| 20260902141040 | 83 | 199 | 0.0 | 2.0 | 0.00 | 0.00 | 0.00 | 78 | 1018.2 |
| 20260902140539 | 82 | 198 | 0.0 | 2.0 | 0.00 | 0.00 | 0.00 | 79 | 1018.3 |
| 20260902140037 | 82 | 198 | 0.0 | 2.0 | 0.00 | 0.00 | 0.00 | 80 | 1018.2 |
| 20260902135540 | 81 | 197 | 0.0 | 1.0 | 0.00 | 0.00 | 0.00 | 81 | 1018.3 |
| 20260902135034 | 81 | 232 | 0.0 | 0.0 | 0.00 | 0.00 | 0.00 | 81 | 1018.3 |
| 20260902134534 | 80 | 232 | 0.0 | 0.0 | 0.00 | 0.00 | 0.00 | 83 | 1018.3 |
| 20260902134032 | 80 | 232 | 0.0 | 0.0 | 0.00 | 0.00 | 0.00 | 84 | 1018.2 |
| 20260902133532 | 80 | 232 | 0.0 | 0.0 | 0.00 | 0.00 | 0.00 | 85 | 1018.2 |
| 20260902133046 | 79 | 232 | 0.0 | 0.0 | 0.00 | 0.00 | 0.00 | 85 | 1018.3 |
| 20260902132531 | 79 | 232 | 0.0 | 0.0 | 0.00 | 0.00 | 0.00 | 86 | 1018.2 |
| 20260902132028 | 78 | 232 | 0.0 | 0.0 | 0.00 | 0.00 | 0.00 | 87 | 1018.2 |
| 20260902131526 | 78 | 232 | 0.0 | 0.0 | 0.00 | 0.00 | 0.00 | 88 | 1018.2 |
| 20260902131025 | 77 | 232 | 0.0 | 0.0 | 0.00 | 0.00 | 0.00 | 89 | 1018.2 |
| 20260902130524 | 77 | 232 | 0.0 | 0.0 | 0.00 | 0.00 | 0.00 | 90 | 1018.2 |
| 20260902130027 | 76 | 232 | 0.0 | 0.0 | 0.00 | 0.00 | 0.00 | 91 | 1018.2 |
| 20260902125524 | 76 | 232 | 0.0 | 0.0 | 0.00 | 0.00 | 0.00 | 92 | 1018.2 |
| 20260902125023 | 75 | 232 | 0.0 | 0.0 | 0.00 | 0.00 | 0.00 | 93 | 1018.2 |
| 20260902124523 | 75 | 232 | 0.0 | 0.0 | 0.00 | 0.00 | 0.00 | 93 | 1018.2 |
| 20260902124022 | 74 | 232 | 0.0 | 0.0 | 0.00 | 0.00 | 0.00 | 94 | 1018.2 |
| 20260902123521 | 74 | 232 | 0.0 | 0.0 | 0.00 | 0.00 | 0.00 | 95 | 1018.1 |
| 20260902123020 | 73 | 232 | 0.0 | 0.0 | 0.00 | 0.00 | 0.00 | 95 | 1018.1 |
| 20260902122523 | 73 | 232 | 0.0 | 0.0 | 0.00 | 0.00 | 0.00 | 95 | 1018.2 |
| 20260902122018 | 73 | 232 | 0.0 | 0.0 | 0.00 | 0.00 | 0.00 | 95 | 1018.1 |
| 20260902121518 | 73 | 232 | 0.0 | 0.0 | 0.00 | 0.00 | 0.00 | 95 | 1018.1 |
| 20260902121019 | 73 | 232 | 0.0 | 0.0 | 0.00 | 0.00 | 0.00 | 95 | 1018.0 |
| 20260902120517 | 73 | 232 | 0.0 | 0.0 | 0.00 | 0.00 | 0.00 | 95 | 1018.0 |
| 20260902120015 | 73 | 232 | 0.0 | 0.0 | 0.00 | 0.00 | 0.00 | 95 | 1017.9 |
| 20260902115518 | 73 | 232 | 0.0 | 0.0 | 0.00 | 0.00 | 0.00 | 95 | 1017.9 |
| 20260902115014 | 72 | 232 | 0.0 | 0.0 | 0.00 | 0.00 | 0.00 | 95 | 1017.8 |
| 20260902114514 | 72 | 232 | 0.0 | 0.0 | 0.00 | 0.00 | 0.00 | 95 | 1017.8 |
| 20260902114014 | 72 | 232 | 0.0 | 0.0 | 0.00 | 0.00 | 0.00 | 95 | 1017.7 |
| 20260902113512 | 72 | 232 | 0.0 | 0.0 | 0.00 | 0.00 | 0.00 | 95 | 1017.7 |
| 20260902113012 | 72 | 232 | 0.0 | 0.0 | 0.00 | 0.00 | 0.00 | 95 | 1017.7 |
| 20260902112513 | 72 | 232 | 0.0 | 0.0 | 0.00 | 0.00 | 0.00 | 95 | 1017.7 |
| 20260902112012 | 72 | 232 | 0.0 | 0.0 | 0.00 | 0.00 | 0.00 | 95 | 1017.6 |
| 20260902111511 | 72 | 232 | 0.0 | 0.0 | 0.00 | 0.00 | 0.00 | 94 | 1017.6 |
| 20260902111014 | 72 | 232 | 0.0 | 0.0 | 0.00 | 0.00 | 0.00 | 94 | 1017.5 |
| 20260902110511 | 72 | 232 | 0.0 | 0.0 | 0.00 | 0.00 | 0.00 | 94 | 1017.5 |
| 20260902110014 | 72 | 232 | 0.0 | 0.0 | 0.00 | 0.00 | 0.00 | 94 | 1017.5 |
| 20260902105509 | 72 | 232 | 0.0 | 0.0 | 0.00 | 0.00 | 0.00 | 94 | 1017.4 |
| 20260902105014 | 73 | 232 | 0.0 | 0.0 | 0.00 | 0.00 | 0.00 | 94 | 1017.4 |
| 20260902104508 | 73 | 232 | 0.0 | 0.0 | 0.00 | 0.00 | 0.00 | 94 | 1017.4 |
| 20260902104009 | 73 | 232 | 0.0 | 0.0 | 0.00 | 0.00 | 0.00 | 94 | 1017.3 |
| 20260902103507 | 73 | 232 | 0.0 | 0.0 | 0.00 | 0.00 | 0.00 | 95 | 1017.3 |
| 20260902103007 | 72 | 232 | 0.0 | 0.0 | 0.00 | 0.00 | 0.00 | 94 | 1017.2 |
| 20260902102507 | 73 | 232 | 0.0 | 0.0 | 0.00 | 0.00 | 0.00 | 94 | 1017.2 |
| 20260902102007 | 73 | 232 | 0.0 | 0.0 | 0.00 | 0.00 | 0.00 | 94 | 1017.2 |
| 20260902101507 | 73 | 232 | 0.0 | 0.0 | 0.00 | 0.00 | 0.00 | 94 | 1017.2 |
| 20260902101008 | 73 | 232 | 0.0 | 0.0 | 0.00 | 0.00 | 0.00 | 94 | 1017.2 |
| 20260902100506 | 73 | 232 | 0.0 | 0.0 | 0.00 | 0.00 | 0.00 | 94 | 1017.2 |
| 20260902100006 | 73 | 232 | 0.0 | 0.0 | 0.00 | 0.00 | 0.00 | 94 | 1017.2 |
| 20260902095505 | 73 | 232 | 0.0 | 0.0 | 0.00 | 0.00 | 0.00 | 93 | 1017.1 |
| 20260902095003 | 73 | 232 | 0.0 | 0.0 | 0.00 | 0.00 | 0.00 | 94 | 1017.1 |
| 20260902094503 | 73 | 232 | 0.0 | 0.0 | 0.00 | 0.00 | 0.00 | 94 | 1017.1 |
| 20260902094002 | 73 | 232 | 0.0 | 0.0 | 0.00 | 0.00 | 0.00 | 94 | 1017.0 |
| 20260902093502 | 73 | 232 | 0.0 | 0.0 | 0.00 | 0.00 | 0.00 | 93 | 1016.9 |
| 20260902093001 | 73 | 232 | 0.0 | 0.0 | 0.00 | 0.00 | 0.00 | 93 | 1016.8 |
| 20260902092501 | 73 | 232 | 0.0 | 0.0 | 0.00 | 0.00 | 0.00 | 93 | 1016.8 |
| 20260902092100 | 73 | 232 | 0.0 | 0.0 | 0.00 | 0.00 | 0.00 | 93 | 1016.8 |
| 20260902091611 | 73 | 232 | 0.0 | 0.0 | 0.00 | 0.00 | 0.00 | 93 | 1016.8 |
| 20260902091100 | 73 | 232 | 0.0 | 0.0 | 0.00 | 0.00 | 0.00 | 93 | 1016.7 |
| 20260902090603 | 73 | 232 | 0.0 | 0.0 | 0.00 | 0.00 | 0.00 | 93 | 1016.8 |
| 20260902090105 | 73 | 232 | 0.0 | 0.0 | 0.00 | 0.00 | 0.00 | 93 | 1016.7 |
| 20260902085559 | 73 | 232 | 0.0 | 0.0 | 0.00 | 0.00 | 0.00 | 93 | 1016.7 |
| 20260902085059 | 73 | 232 | 0.0 | 0.0 | 0.00 | 0.00 | 0.00 | 92 | 1016.6 |
| 20260902084607 | 73 | 232 | 0.0 | 0.0 | 0.00 | 0.00 | 0.00 | 92 | 1016.6 |
| 20260902084058 | 73 | 232 | 0.0 | 0.0 | 0.00 | 0.00 | 0.00 | 92 | 1016.5 |
| 20260902083557 | 74 | 232 | 0.0 | 0.0 | 0.00 | 0.00 | 0.00 | 92 | 1016.4 |
| 20260902083114 | 74 | 232 | 0.0 | 0.0 | 0.00 | 0.00 | 0.00 | 92 | 1016.4 |
| 20260902082557 | 74 | 232 | 0.0 | 0.0 | 0.00 | 0.00 | 0.00 | 92 | 1016.5 |
| 20260902082057 | 74 | 232 | 0.0 | 0.0 | 0.00 | 0.00 | 0.00 | 91 | 1016.4 |
| 20260902081557 | 74 | 232 | 0.0 | 0.0 | 0.00 | 0.00 | 0.00 | 91 | 1016.4 |
| 20260902081056 | 74 | 232 | 0.0 | 0.0 | 0.00 | 0.00 | 0.00 | 91 | 1016.5 |
| 20260902080559 | 74 | 232 | 0.0 | 0.0 | 0.00 | 0.00 | 0.00 | 92 | 1016.4 |
| 20260902080057 | 74 | 232 | 0.0 | 0.0 | 0.00 | 0.00 | 0.00 | 91 | 1016.4 |
| 20260902075558 | 74 | 232 | 0.0 | 0.0 | 0.00 | 0.00 | 0.00 | 91 | 1016.4 |
| 20260902075054 | 74 | 232 | 0.0 | 0.0 | 0.00 | 0.00 | 0.00 | 91 | 1016.4 |
| 20260902074558 | 74 | 232 | 0.0 | 0.0 | 0.00 | 0.00 | 0.00 | 91 | 1016.4 |
| 20260902074053 | 74 | 232 | 0.0 | 0.0 | 0.00 | 0.00 | 0.00 | 91 | 1016.3 |
| 20260902073555 | 74 | 232 | 0.0 | 0.0 | 0.00 | 0.00 | 0.00 | 91 | 1016.3 |
| 20260902073057 | 75 | 232 | 0.0 | 0.0 | 0.00 | 0.00 | 0.00 | 91 | 1016.3 |
| 20260902072552 | 75 | 232 | 0.0 | 0.0 | 0.00 | 0.00 | 0.00 | 91 | 1016.3 |
| 20260902072052 | 75 | 232 | 0.0 | 0.0 | 0.00 | 0.00 | 0.00 | 91 | 1016.3 |
| 20260902071552 | 75 | 232 | 0.0 | 0.0 | 0.00 | 0.00 | 0.00 | 91 | 1016.3 |
| 20260902071056 | 75 | 232 | 0.0 | 0.0 | 0.00 | 0.00 | 0.00 | 91 | 1016.3 |
| 20260902070551 | 75 | 232 | 0.0 | 0.0 | 0.00 | 0.00 | 0.00 | 91 | 1016.4 |
| 20260902070050 | 75 | 232 | 0.0 | 0.0 | 0.00 | 0.00 | 0.00 | 91 | 1016.4 |
| 20260902065550 | 75 | 232 | 0.0 | 0.0 | 0.00 | 0.00 | 0.00 | 91 | 1016.4 |
| 20260902065050 | 75 | 232 | 0.0 | 0.0 | 0.00 | 0.00 | 0.00 | 91 | 1016.4 |
| 20260902064551 | 75 | 232 | 0.0 | 0.0 | 0.00 | 0.00 | 0.00 | 91 | 1016.4 |
| 20260902064050 | 75 | 232 | 0.0 | 0.0 | 0.00 | 0.00 | 0.00 | 91 | 1016.4 |
| 20260902063549 | 75 | 232 | 0.0 | 0.0 | 0.00 | 0.00 | 0.00 | 91 | 1016.5 |
| 20260902063049 | 75 | 232 | 0.0 | 0.0 | 0.00 | 0.00 | 0.00 | 91 | 1016.5 |
| 20260902062549 | 75 | 232 | 0.0 | 0.0 | 0.00 | 0.00 | 0.00 | 91 | 1016.5 |
| 20260902062048 | 75 | 232 | 0.0 | 0.0 | 0.00 | 0.00 | 0.00 | 91 | 1016.5 |
| 20260902061554 | 75 | 232 | 0.0 | 0.0 | 0.00 | 0.00 | 0.00 | 91 | 1016.5 |
| 20260902061049 | 76 | 232 | 0.0 | 0.0 | 0.00 | 0.00 | 0.00 | 91 | 1016.5 |
| 20260902060549 | 76 | 232 | 0.0 | 0.0 | 0.00 | 0.00 | 0.00 | 91 | 1016.4 |
| 20260902060045 | 76 | 232 | 0.0 | 0.0 | 0.00 | 0.00 | 0.00 | 90 | 1016.6 |
| 20260902055545 | 76 | 232 | 0.0 | 0.0 | 0.00 | 0.00 | 0.00 | 90 | 1016.6 |
| 20260902055045 | 76 | 232 | 0.0 | 0.0 | 0.00 | 0.00 | 0.00 | 90 | 1016.6 |
| 20260902054544 | 76 | 232 | 0.0 | 0.0 | 0.00 | 0.00 | 0.00 | 90 | 1016.6 |
| 20260902054043 | 76 | 232 | 0.0 | 0.0 | 0.00 | 0.00 | 0.00 | 90 | 1016.7 |
| 20260902053543 | 76 | 232 | 0.0 | 0.0 | 0.00 | 0.00 | 0.00 | 90 | 1016.8 |
| 20260902053043 | 76 | 232 | 0.0 | 0.0 | 0.00 | 0.00 | 0.00 | 89 | 1016.8 |
| 20260902052542 | 76 | 232 | 0.0 | 0.0 | 0.00 | 0.00 | 0.00 | 89 | 1016.8 |
| 20260902052042 | 76 | 232 | 0.0 | 0.0 | 0.00 | 0.00 | 0.00 | 89 | 1016.7 |
| 20260902051543 | 76 | 232 | 0.0 | 0.0 | 0.00 | 0.00 | 0.00 | 89 | 1016.8 |
| 20260902051043 | 76 | 232 | 0.0 | 0.0 | 0.00 | 0.00 | 0.00 | 89 | 1016.8 |
| 20260902050544 | 76 | 234 | 0.0 | 0.0 | 0.00 | 0.00 | 0.00 | 89 | 1016.8 |
| 20260902050041 | 76 | 233 | 0.0 | 0.0 | 0.00 | 0.00 | 0.00 | 89 | 1016.7 |
| 20260902045542 | 76 | 234 | 0.0 | 0.0 | 0.00 | 0.00 | 0.00 | 89 | 1016.6 |
| 20260902045045 | 76 | 233 | 0.0 | 0.0 | 0.00 | 0.00 | 0.00 | 89 | 1016.7 |
| 20260902044546 | 76 | 234 | 0.0 | 0.0 | 0.00 | 0.00 | 0.00 | 89 | 1016.7 |
| 20260902044040 | 77 | 234 | 0.0 | 0.0 | 0.00 | 0.00 | 0.00 | 88 | 1016.7 |
| 20260902043540 | 77 | 234 | 0.0 | 0.0 | 0.00 | 0.00 | 0.00 | 88 | 1016.7 |
| 20260902043047 | 77 | 233 | 0.0 | 0.0 | 0.00 | 0.00 | 0.00 | 88 | 1016.6 |
| 20260902042543 | 77 | 234 | 0.0 | 0.0 | 0.00 | 0.00 | 0.00 | 88 | 1016.7 |
| 20260902042038 | 77 | 233 | 0.0 | 0.0 | 0.00 | 0.00 | 0.00 | 88 | 1016.7 |
| 20260902041540 | 77 | 233 | 0.0 | 0.0 | 0.00 | 0.00 | 0.00 | 87 | 1016.8 |
| 20260902041038 | 77 | 234 | 0.0 | 0.0 | 0.00 | 0.00 | 0.00 | 87 | 1016.8 |
| 20260902040536 | 77 | 233 | 0.0 | 0.0 | 0.00 | 0.00 | 0.00 | 87 | 1016.8 |
| 20260902040036 | 77 | 234 | 0.0 | 0.0 | 0.00 | 0.00 | 0.00 | 87 | 1016.8 |
| 20260902035535 | 77 | 234 | 0.0 | 0.0 | 0.00 | 0.00 | 0.00 | 87 | 1016.8 |
| 20260902035035 | 77 | 233 | 0.0 | 0.0 | 0.00 | 0.00 | 0.00 | 87 | 1016.8 |
| 20260902034535 | 77 | 233 | 0.0 | 0.0 | 0.00 | 0.00 | 0.00 | 87 | 1016.9 |
| 20260902034104 | 77 | 233 | 0.0 | 0.0 | 0.00 | 0.00 | 0.00 | 86 | 1016.9 |
| 20260902033535 | 77 | 233 | 0.0 | 0.0 | 0.00 | 0.00 | 0.00 | 86 | 1016.8 |
| 20260902033041 | 78 | 233 | 0.0 | 0.0 | 0.00 | 0.00 | 0.00 | 85 | 1016.9 |
| 20260902032535 | 78 | 234 | 0.0 | 0.0 | 0.00 | 0.00 | 0.00 | 85 | 1016.8 |
| 20260902032035 | 78 | 234 | 0.0 | 0.0 | 0.00 | 0.00 | 0.00 | 84 | 1016.8 |
| 20260902031539 | 78 | 234 | 0.0 | 0.0 | 0.00 | 0.00 | 0.00 | 84 | 1016.7 |
| 20260902031034 | 78 | 233 | 0.0 | 0.0 | 0.00 | 0.00 | 0.00 | 84 | 1016.8 |
| 20260902030533 | 78 | 234 | 0.0 | 0.0 | 0.00 | 0.00 | 0.00 | 83 | 1016.8 |
| 20260902030033 | 78 | 233 | 0.0 | 0.0 | 0.00 | 0.00 | 0.00 | 83 | 1016.9 |
| 20260902025533 | 78 | 234 | 0.0 | 0.0 | 0.00 | 0.00 | 0.00 | 83 | 1016.9 |
| 20260902025033 | 79 | 234 | 0.0 | 0.0 | 0.00 | 0.00 | 0.00 | 84 | 1016.9 |
| 20260902024533 | 79 | 233 | 0.0 | 0.0 | 0.00 | 0.00 | 0.00 | 83 | 1016.8 |
| 20260902024032 | 79 | 233 | 0.0 | 0.0 | 0.00 | 0.00 | 0.00 | 81 | 1016.8 |
| 20260902023537 | 79 | 234 | 0.0 | 0.0 | 0.00 | 0.00 | 0.00 | 82 | 1016.8 |
| 20260902023036 | 79 | 234 | 0.0 | 0.0 | 0.00 | 0.00 | 0.00 | 82 | 1016.8 |
| 20260902022533 | 79 | 233 | 0.0 | 0.0 | 0.00 | 0.00 | 0.00 | 82 | 1016.8 |
| 20260902022038 | 79 | 234 | 0.0 | 0.0 | 0.00 | 0.00 | 0.00 | 81 | 1016.7 |
| 20260902021532 | 79 | 233 | 0.0 | 0.0 | 0.00 | 0.00 | 0.00 | 81 | 1016.7 |
| 20260902021034 | 79 | 234 | 0.0 | 0.0 | 0.00 | 0.00 | 0.00 | 81 | 1016.6 |
| 20260902020532 | 80 | 234 | 0.0 | 0.0 | 0.00 | 0.00 | 0.00 | 80 | 1016.5 |
| 20260902020032 | 80 | 233 | 0.0 | 0.0 | 0.00 | 0.00 | 0.00 | 79 | 1016.4 |
| 20260902015532 | 80 | 234 | 0.0 | 0.0 | 0.00 | 0.00 | 0.00 | 79 | 1016.5 |
| 20260902015031 | 80 | 233 | 0.0 | 0.0 | 0.00 | 0.00 | 0.00 | 79 | 1016.4 |
| 20260902014533 | 80 | 233 | 0.0 | 0.0 | 0.00 | 0.00 | 0.00 | 78 | 1016.4 |
| 20260902014033 | 80 | 234 | 0.0 | 0.0 | 0.00 | 0.00 | 0.00 | 78 | 1016.3 |
| 20260902013531 | 81 | 234 | 0.0 | 0.0 | 0.00 | 0.00 | 0.00 | 79 | 1016.2 |
| 20260902013032 | 81 | 234 | 0.0 | 0.0 | 0.00 | 0.00 | 0.00 | 78 | 1016.1 |
| 20260902012532 | 81 | 234 | 0.0 | 0.0 | 0.00 | 0.00 | 0.00 | 77 | 1016.1 |
| 20260902012031 | 81 | 234 | 0.0 | 0.0 | 0.00 | 0.00 | 0.00 | 78 | 1016.0 |
| 20260902011538 | 81 | 234 | 0.0 | 0.0 | 0.00 | 0.00 | 0.00 | 77 | 1015.9 |
| 20260902011031 | 81 | 233 | 0.0 | 0.0 | 0.00 | 0.00 | 0.00 | 76 | 1015.9 |
| 20260902010531 | 82 | 233 | 0.0 | 0.0 | 0.00 | 0.00 | 0.00 | 77 | 1016.0 |
| 20260902010029 | 82 | 234 | 0.0 | 0.0 | 0.00 | 0.00 | 0.00 | 76 | 1015.9 |
| 20260902005530 | 82 | 233 | 0.0 | 0.0 | 0.00 | 0.00 | 0.00 | 75 | 1015.8 |
| 20260902005030 | 82 | 234 | 0.0 | 0.0 | 0.00 | 0.00 | 0.00 | 75 | 1015.7 |
| 20260902004533 | 82 | 234 | 0.0 | 0.0 | 0.00 | 0.00 | 0.00 | 73 | 1015.6 |
| 20260902004032 | 82 | 234 | 0.0 | 0.0 | 0.00 | 0.00 | 0.00 | 73 | 1015.6 |
| 20260902003529 | 82 | 234 | 0.0 | 0.0 | 0.00 | 0.00 | 0.00 | 72 | 1015.6 |
| 20260902003030 | 83 | 234 | 0.0 | 0.0 | 0.00 | 0.00 | 0.00 | 72 | 1015.6 |
| 20260902002531 | 83 | 234 | 0.0 | 0.0 | 0.00 | 0.00 | 0.00 | 70 | 1015.6 |
| 20260902002029 | 83 | 234 | 0.0 | 0.0 | 0.00 | 0.00 | 0.00 | 71 | 1015.6 |
| 20260902001529 | 84 | 234 | 0.0 | 0.0 | 0.00 | 0.00 | 0.00 | 70 | 1015.6 |
| 20260902001029 | 84 | 234 | 0.0 | 0.0 | 0.00 | 0.00 | 0.00 | 69 | 1015.6 |
| 20260902000529 | 85 | 234 | 0.0 | 0.0 | 0.00 | 0.00 | 0.00 | 68 | 1015.6 |
| 20260902000036 | 85 | 234 | 0.0 | 0.0 | 0.00 | 0.00 | 0.00 | 67 | 1015.7 |
| 20260901235527 | 85 | 234 | 0.0 | 0.0 | 0.00 | 0.00 | 0.00 | 68 | 1015.7 |
| 20260901235027 | 86 | 234 | 0.0 | 0.0 | 0.00 | 0.00 | 0.00 | 67 | 1015.7 |
| 20260901234527 | 86 | 234 | 0.0 | 0.0 | 0.00 | 0.00 | 0.00 | 65 | 1015.7 |
| 20260901234028 | 86 | 233 | 0.0 | 0.0 | 0.00 | 0.00 | 0.00 | 64 | 1015.7 |
| 20260901233533 | 86 | 234 | 0.0 | 0.0 | 0.00 | 0.00 | 0.00 | 62 | 1015.8 |
| 20260901233027 | 87 | 234 | 0.0 | 0.0 | 0.00 | 0.00 | 0.00 | 64 | 1015.8 |
| 20260901232527 | 87 | 234 | 0.0 | 0.0 | 0.00 | 0.00 | 0.00 | 62 | 1015.8 |
| 20260901232030 | 87 | 234 | 0.0 | 0.0 | 0.00 | 0.00 | 0.00 | 60 | 1015.8 |
| 20260901231527 | 87 | 234 | 0.0 | 0.0 | 0.00 | 0.00 | 0.00 | 59 | 1015.9 |
| 20260901231026 | 88 | 234 | 0.0 | 0.0 | 0.00 | 0.00 | 0.00 | 60 | 1015.9 |
| 20260901230527 | 88 | 234 | 0.0 | 0.0 | 0.00 | 0.00 | 0.00 | 59 | 1015.8 |
| 20260901230026 | 88 | 234 | 0.0 | 0.0 | 0.00 | 0.00 | 0.00 | 58 | 1015.7 |
| 20260901225528 | 88 | 234 | 0.0 | 0.0 | 0.00 | 0.00 | 0.00 | 58 | 1015.7 |
| 20260901225026 | 88 | 234 | 0.0 | 0.0 | 0.00 | 0.00 | 0.00 | 59 | 1015.7 |
| 20260901224527 | 88 | 234 | 0.0 | 0.0 | 0.00 | 0.00 | 0.00 | 59 | 1015.6 |
| 20260901224025 | 89 | 234 | 0.0 | 0.0 | 0.00 | 0.00 | 0.00 | 59 | 1015.7 |
| 20260901223525 | 89 | 234 | 0.0 | 0.0 | 0.00 | 0.00 | 0.00 | 57 | 1015.6 |
| 20260901223025 | 89 | 234 | 0.0 | 0.0 | 0.00 | 0.00 | 0.00 | 57 | 1015.7 |
| 20260901222525 | 89 | 234 | 0.0 | 0.0 | 0.00 | 0.00 | 0.00 | 57 | 1015.7 |
| 20260901222024 | 89 | 234 | 0.0 | 0.0 | 0.00 | 0.00 | 0.00 | 58 | 1015.7 |
| 20260901221557 | 89 | 234 | 0.0 | 0.0 | 0.00 | 0.00 | 0.00 | 57 | 1015.7 |
| 20260901221025 | 89 | 234 | 0.0 | 0.0 | 0.00 | 0.00 | 0.00 | 58 | 1015.7 |
| 20260901220528 | 89 | 234 | 0.0 | 0.0 | 0.00 | 0.00 | 0.00 | 58 | 1015.6 |
| 20260901220037 | 89 | 234 | 0.0 | 1.0 | 0.00 | 0.00 | 0.00 | 58 | 1015.7 |
| 20260901215524 | 89 | 234 | 0.0 | 2.0 | 0.00 | 0.00 | 0.00 | 58 | 1015.7 |
| 20260901215024 | 89 | 234 | 0.0 | 2.0 | 0.00 | 0.00 | 0.00 | 57 | 1015.7 |
| 20260901214526 | 90 | 234 | 0.0 | 2.0 | 0.00 | 0.00 | 0.00 | 57 | 1015.7 |
| 20260901214024 | 90 | 234 | 0.0 | 2.0 | 0.00 | 0.00 | 0.00 | 56 | 1015.7 |
| 20260901213524 | 90 | 234 | 0.0 | 2.0 | 0.00 | 0.00 | 0.00 | 56 | 1015.7 |
| 20260901213024 | 90 | 234 | 0.0 | 2.0 | 0.00 | 0.00 | 0.00 | 55 | 1015.7 |
| 20260901212523 | 91 | 234 | 0.0 | 3.0 | 0.00 | 0.00 | 0.00 | 56 | 1015.6 |
| 20260901212024 | 91 | 234 | 1.0 | 3.0 | 0.00 | 0.00 | 0.00 | 56 | 1015.7 |
| 20260901211525 | 91 | 197 | 0.0 | 3.0 | 0.00 | 0.00 | 0.00 | 55 | 1015.7 |
| 20260901211022 | 91 | 197 | 0.0 | 4.0 | 0.00 | 0.00 | 0.00 | 54 | 1015.8 |
| 20260901210521 | 91 | 184 | 2.0 | 4.0 | 0.00 | 0.00 | 0.00 | 55 | 1015.8 |
| 20260901210029 | 91 | 60 | 0.0 | 2.0 | 0.00 | 0.00 | 0.00 | 55 | 1015.8 |
| 20260901205521 | 91 | 68 | 1.0 | 2.0 | 0.00 | 0.00 | 0.00 | 55 | 1015.8 |
| 20260901205024 | 91 | 68 | 1.0 | 2.0 | 0.00 | 0.00 | 0.00 | 56 | 1015.8 |
| 20260901204522 | 91 | 84 | 0.0 | 2.0 | 0.00 | 0.00 | 0.00 | 54 | 1016.0 |
| 20260901204019 | 91 | 84 | 1.0 | 2.0 | 0.00 | 0.00 | 0.00 | 53 | 1016.0 |
| 20260901203520 | 90 | 181 | 0.0 | 2.0 | 0.00 | 0.00 | 0.00 | 56 | 1016.0 |
| 20260901203022 | 90 | 117 | 0.0 | 0.0 | 0.00 | 0.00 | 0.00 | 55 | 1016.1 |
| 20260901202519 | 90 | 117 | 0.0 | 0.0 | 0.00 | 0.00 | 0.00 | 57 | 1016.2 |
| 20260901202019 | 89 | 113 | 0.0 | 0.0 | 0.00 | 0.00 | 0.00 | 57 | 1016.3 |
| 20260901201518 | 89 | 113 | 0.0 | 1.0 | 0.00 | 0.00 | 0.00 | 58 | 1016.3 |
| 20260901201018 | 89 | 113 | 0.0 | 1.0 | 0.00 | 0.00 | 0.00 | 59 | 1016.2 |
| 20260901200518 | 89 | 113 | 0.0 | 2.0 | 0.00 | 0.00 | 0.00 | 56 | 1016.3 |
| 20260901200031 | 90 | 113 | 0.0 | 2.0 | 0.00 | 0.00 | 0.00 | 55 | 1016.3 |
| 20260901195516 | 90 | 113 | 0.0 | 2.0 | 0.00 | 0.00 | 0.00 | 56 | 1016.3 |
| 20260901195015 | 91 | 114 | 0.0 | 3.0 | 0.00 | 0.00 | 0.00 | 55 | 1016.4 |
| 20260901194515 | 92 | 114 | 0.0 | 4.0 | 0.00 | 0.00 | 0.00 | 53 | 1016.5 |
| 20260901194016 | 92 | 98 | 1.0 | 4.0 | 0.00 | 0.00 | 0.00 | 52 | 1016.5 |